CAPE
0 0 0 0 0 0 0 0 32 176 159 225 572 1070 1098 1141 861 273 12 0 0 0 0 7 2 0 0 0 0 0 0 0 0 0 0 0 0 0 0 0 0 0 0 1
0 0 0 0 0 0 0 12 44 85 81 174 678 976 1117 805 407 144 50 6 12 24 29 26 10 1 0 0 0 0 0 0 0 0 0 0 0 0 0 0 0 18 27 4
0 0 0 0 0 0 0 20 6 64 60 34 277 694 550 1040 499 401 308 107 82 94 79 95 58 29 8 11 10 3 1 0 0 0 0 0 0 0 0 0 2 13 0 6
0 0 0 0 0 0 0 0 0 0 0 21 202 215 259 1074 771 793 650 458 190 137 142 78 21 13 1 2 41 10 12 6 4 17 31 41 29 29 19 10 22 0 14 42
0 0 0 0 0 0 0 0 0 0 0 2 27 126 1023 644 655 731 685 555 392 243 78 37 9 6 3 0 1 6 17 29 39 42 57 54 51 33 23 16 13 33 33 38
0 0 0 0 0 0 0 0 0 0 0 20 48 43 270 157 534 762 606 518 304 200 69 35 10 0 0 0 0 0 2 11 44 44 68 58 41 21 9 12 11 7 13 1
0 0 0 0 0 0 0 0 8 6 18 95 101 0 458 295 374 624 553 328 314 142 34 6 0 0 0 0 0 0 4 14 58 64 88 67 41 10 13 6 8 6 10 5
0 0 0 0 0 2 0 0 0 0 11 26 24 194 389 201 361 463 580 362 191 15 0 0 0 0 0 0 0 0 19 57 79 52 73 38 29 4 13 7 6 2 2 2
0 0 0 0 0 0 1 9 0 0 4 24 118 228 223 123 142 385 460 304 14 1 0 0 0 0 0 0 0 14 29 42 7 32 46 32 14 15 12 6 6 9 1 2
3 8 0 0 0 0 0 0 0 37 0 2 18 259 289 177 160 134 111 31 2 0 0 0 0 0 0 1 22 32 15 24 14 26 22 8 13 9 6 11 5 7 0 0
0 0 2 0 0 5 0 24 1 0 0 0 3 107 28 75 70 66 33 3 0 0 0 0 1 10 22 19 36 57 25 37 28 14 6 2 11 9 0 11 2 13 8 0
0 0 7 0 0 0 0 0 0 0 10 0 0 48 8 13 0 0 0 1 1 0 0 5 15 7 3 17 8 44 67 41 14 0 23 19 14 0 0 3 8 2 3 9
0 0 0 0 0 0 0 0 0 0 0 12 2 58 0 0 0 3 3 0 1 1 3 10 5 16 5 34 15 49 21 11 0 25 19 2 0 0 3 9 2 11 11 0
0 0 0 1 0 0 0 0 0 0 0 2 34 85 21 8 0 1 0 1 0 0 3 16 21 10 18 23 41 19 1 0 0 9 31 10 13 13 12 9 9 2 1 2
0 0 0 0 0 0 0 0 0 0 0 0 0 0 0 0 0 0 0 0 0 0 7 12 14 17 23 29 26 11 0 0 8 14 13 12 23 13 5 7 5 3 0 2
0 0 0 0 0 0 0 0 0 0 0 0 0 1 0 0 0 0 0 0 0 8 23 20 26 20 23 20 23 0 0 0 15 22 8 19 0 0 14 0 1 12 2 2
0 0 0 0 0 0 0 0 0 0 0 0 0 0 0 0 0 0 0 0 1 8 11 17 21 16 22 24 9 0 0 15 21 7 1 0 0 20 4 15 18 8 7 10
0 0 0 0 0 0 0 0 0 0 0 0 0 0 0 0 0 0 0 0 1 8 15 21 15 2 24 11 0 0 15 19 9 5 6 12 12 3 12 13 18 10 10 12
0 0 0 0 0 0 0 0 0 0 0 0 0 0 0 0 0 0 0 0 2 9 9 18 2 20 20 1 0 27 12 14 1 2 6 2 11 13 0 3 2 5 5 10
0 0 0 0 0 6 0 0 0 0 1 0 0 0 0 0 0 0 0 0 2 10 4 15 8 4 6 0 29 9 15 11 2 3 4 5 21 16 8 4 2 3 1 2
0 0 0 0 0 0 0 0 0 0 1 0 0 0 0 0 0 0 0 1 1 2 4 2 0 15 13 29 8 20 11 6 5 2 8 9 16 25 33 28 22 10 12 1
0 0 0 0 0 0 0 0 0 0 0 0 0 0 0 0 0 0 1 5 0 1 5 9 12 15 18 4 17 9 7 5 0 0 4 1 2 21 0 12 12 3 3 0
0 27 0 0 0 0 0 0 0 0 0 0 0 0 0 0 0 0 4 2 5 9 7 1 7 9 7 6 16 11 3 2 0 0 1 2 1 10 29 18 4 4 0 0
0 0 0 0 0 0 0 0 0 0 0 0 0 0 0 0 0 1 4 0 2 10 12 11 15 5 8 9 10 4 5 2 2 0 2 1 6 22 24 17 24 5 3 1
0 0 0 0 0 0 0 0 0 0 0 0 0 0 0 0 0 2 0 7 2 10 15 16 2 2 6 24 19 11 8 4 0 1 0 1 0 6 3 12 2 7 0 0
0 0 0 0 0 0 0 0 0 0 0 0 0 0 0 0 1 4 1 4 8 11 17 2 1 8 8 23 15 21 16 2 2 2 2 1 1 1 0 6 13 0 0 0
CIN
0 0 0 0 0 0 0 -1 -3 -5 -3 -3 -4 -2 -1 -6 -28 -128 -187 0 0 0 0 -207 -225 0 0 0 0 0 0 0 0 0 0 0 0 0 0 0 0 0 0 -2
0 0 0 0 0 0 0 -2 -6 -2 -13 -7 -4 -3 -4 -3 -38 -117 -165 -192 -198 -184 -173 -177 -193 -57 0 0 0 0 0 0 0 0 0 0 0 0 0 0 0 -1 -3 -5
0 0 0 0 0 0 -1 -7 -7 -4 -29 -33 -2 -10 -34 -2 -14 -64 -79 -109 -110 -102 -102 -84 -82 -91 -39 -3 -1 -1 -1 0 -1 0 0 0 0 0 0 0 -3 -12 0 -1
0 0 0 0 0 0 0 0 0 0 0 -6 -34 -9 -152 -5 -4 -1 -9 -30 -46 -73 -38 -32 -38 -1 0 -3 -7 -5 -2 -2 -3 -2 -3 -5 -3 -2 -2 -5 -4 0 -1 -2
0 0 0 0 0 0 0 0 0 0 0 -3 -5 -5 -9 -18 -6 -8 -4 -4 -3 -12 -15 -17 -2 -4 -5 0 -5 -12 -5 -2 -1 -1 -2 -2 -1 -3 -3 -2 -1 -3 -6 -3
0 0 0 0 0 0 0 0 0 0 0 -9 -47 -3 -91 -154 -25 -2 -7 -7 -12 -9 -9 -8 -3 0 0 0 0 -1 -3 -2 -5 -3 -2 -3 -3 -3 -7 -3 -2 -4 -3 -3
0 0 0 0 0 0 0 0 -7 -30 -13 -5 -44 0 -14 -6 -9 -4 -16 -62 -9 -4 -13 -18 0 0 0 -2 0 0 -3 -3 -5 -2 -3 -6 -5 -3 -2 -2 -1 -1 -1 -1
0 0 0 0 0 -1 0 0 0 0 -7 -6 -21 -5 -41 -85 -46 -4 -6 -6 -4 -26 0 0 0 0 0 0 0 0 -3 -3 -5 -3 -8 -9 -1 -7 -2 -7 0 0 0 0
0 -1 0 0 0 0 -11 -7 0 0 -1 -11 -20 -23 -49 -26 -5 -3 -3 -9 -9 -2 0 0 0 0 0 0 0 -5 -5 -9 -20 -7 -2 -1 -4 -3 -1 0 0 0 0 0
-2 -3 0 0 0 0 0 0 0 -10 0 -3 -10 -28 -6 -5 -14 -11 -12 -4 -3 0 0 0 0 0 -1 -2 -6 -20 -16 -10 -5 -2 -2 -2 -1 -1 0 0 -1 0 0 0
0 0 -1 0 0 -1 0 -4 -1 0 0 0 -2 -46 -99 -82 -92 -49 -8 -3 -3 0 0 0 -2 -5 -6 -27 -17 -9 -12 -3 -4 -1 -1 -1 -1 -1 0 0 -3 0 -1 0
0 0 -3 0 0 0 0 0 0 0 -2 0 0 -32 -105 -99 -2 0 -1 -5 -4 -1 0 -3 -5 -23 -30 -14 -26 -11 -20 -2 -1 0 -12 -2 0 -1 0 -1 -2 -5 -3 -2
0 0 0 0 0 0 0 0 0 0 0 -4 -1 -27 0 0 0 -2 -2 -3 -3 -2 -4 -5 -21 -41 -86 -11 -27 -8 -5 -3 0 -1 -2 -3 0 0 0 -14 -2 0 -2 0
0 0 0 -3 0 0 0 0 0 0 0 -4 -8 -13 -4 -4 -3 -3 -1 -3 -1 0 -3 -6 -2 -49 -4 -9 -4 -3 -4 0 0 -3 -2 -1 -1 -6 -1 -2 0 -2 -3 -3
0 0 0 0 0 0 0 0 0 0 0 -1 0 0 0 0 0 0 0 0 0 0 -3 -3 -8 -4 -1 -2 -2 -1 0 0 -1 -2 -2 -4 -1 -1 -1 -1 -2 -6 -2 -4
0 0 0 0 0 0 0 0 0 0 0 0 0 -1 0 0 0 0 0 0 -4 -3 -2 -2 -1 -1 -1 -3 -1 0 0 0 -6 -1 -2 0 0 0 -2 -10 -8 0 -2 -1
0 0 0 0 0 0 0 0 0 0 0 0 0 0 0 0 0 0 0 -2 -2 -2 -1 -1 -2 -1 -1 -2 -1 0 0 -6 -2 -3 -2 0 0 -2 -10 -1 -1 -1 -1 -1
0 0 0 0 0 0 -2 0 0 0 0 0 0 0 0 0 0 0 0 0 -1 -1 -1 -1 -1 -3 -2 -1 0 0 -8 -3 -1 -4 -2 -1 -1 -5 -2 0 -1 -1 -1 -1
0 0 0 0 0 0 0 0 0 0 0 0 0 0 0 0 0 0 0 0 -1 0 0 0 -1 -4 -1 -1 0 -1 -2 -2 -6 -4 -1 -4 -1 -1 -9 -1 -1 0 -1 0
0 0 0 0 0 -1 0 0 0 0 -7 0 0 0 0 0 0 0 0 0 0 -1 0 -1 -18 -18 -10 0 -1 -2 -3 -1 -1 -2 -2 -1 -1 -5 -18 -25 -2 0 -1 0
0 0 0 0 -2 0 0 0 0 0 -1 0 0 0 0 0 0 -1 0 -1 -1 -2 -3 -3 0 -1 -1 -2 -5 -1 -1 -1 -4 -3 -1 -1 -1 -1 -1 0 -1 -5 -4 -5
0 0 0 0 0 0 0 0 0 0 0 0 0 0 0 0 0 0 0 -1 0 -2 -1 -1 -1 -1 -1 -5 -2 -1 0 -1 -1 -13 -1 -2 -1 -1 -3 -4 -1 -2 -2 -1
0 -38 0 0 -1 0 0 0 0 0 0 0 0 0 0 0 0 0 0 -1 -1 -1 0 -1 -1 -3 -5 -2 -1 -1 -3 -1 -2 -1 -2 -4 -1 -2 -1 -2 -1 -8 0 0
0 0 0 0 0 0 0 0 0 0 0 0 0 0 0 0 0 -1 0 0 -2 -1 -1 0 -1 -4 -6 -2 -1 -1 -1 -3 -2 0 -1 -4 -2 -2 -2 -3 -1 -1 -10 0
0 0 0 0 0 0 0 0 0 0 0 0 0 0 0 0 0 0 -1 -1 -2 0 -1 -1 -3 -3 -4 -2 -1 -1 -1 -1 -1 -8 -2 -3 -3 -2 -5 -2 -1 -2 -1 0
0 0 0 0 0 0 0 0 0 0 0 0 0 0 0 -1 -1 -1 -2 -2 -1 -1 -2 -3 -3 -3 -3 -2 -3 -1 0 -3 -3 -8 -3 -2 -8 -5 0 -7 -2 0 0 0
Wind_Speed
15 15 13 13 12 11 13 12 12 14 13 9 13 11 11 12 13 14 15 15 16 17 18 20 21 23 25 27 30 32 33 35 36 35 37 38 37 34 31 28 28 32 29 32
12 14 12 12 11 11 11 13 14 12 10 7 9 8 11 13 13 14 14 14 14 15 17 19 21 23 25 28 29 32 34 34 36 38 37 38 36 35 33 33 33 28 31 34
10 12 13 13 13 12 13 12 11 8 9 7 7 4 12 11 12 14 14 14 14 14 15 18 20 23 26 27 28 30 32 35 35 38 37 38 36 37 36 36 35 37 38 34
10 11 12 12 12 11 9 11 12 10 6 5 4 9 6 9 11 12 14 14 14 15 16 18 21 24 26 27 25 28 31 35 37 37 39 40 40 41 39 39 39 41 36 35
9 11 11 12 17 11 15 12 9 6 5 1 7 9 16 19 12 12 13 14 14 15 17 21 23 24 26 27 29 28 32 35 36 39 40 42 43 43 42 43 44 40 40 39
7 11 11 13 14 12 14 11 9 8 7 5 23 16 20 14 9 13 15 17 13 17 20 20 21 24 29 32 33 35 35 37 35 39 41 42 44 44 45 46 44 43 41 40
8 9 10 11 12 15 11 12 6 7 8 12 9 13 20 23 24 20 19 17 20 18 22 24 26 30 32 34 35 36 38 39 38 42 41 42 44 44 44 44 43 42 41 39
5 8 7 11 10 18 15 14 18 16 18 19 9 19 15 22 23 22 19 21 22 23 23 27 31 31 34 35 39 39 38 38 40 39 42 43 45 41 40 39 39 39 39 39
8 8 9 11 12 12 14 13 18 11 2 9 16 14 19 20 21 22 21 23 23 24 27 28 31 33 34 40 43 39 39 41 40 44 43 44 42 39 39 38 37 37 39 39
15 11 10 10 9 9 11 17 12 10 18 15 16 22 18 20 23 23 24 24 25 26 27 31 33 38 41 42 39 38 41 38 44 45 43 42 41 39 38 37 38 38 37 38
17 15 9 9 8 18 13 12 14 13 11 17 15 18 20 21 23 23 24 25 27 29 32 34 37 39 39 39 40 38 38 40 42 40 39 36 37 36 37 37 38 38 36 36
13 16 14 14 15 18 16 17 15 17 19 16 16 17 19 22 23 24 26 27 29 30 32 36 36 37 38 38 33 36 37 35 37 36 35 35 36 35 35 37 38 37 36 34
13 12 7 11 11 12 14 17 15 14 12 16 19 17 18 22 22 23 25 26 28 31 32 29 31 25 24 13 27 27 30 32 33 31 34 34 33 33 35 36 37 36 35 35
14 14 15 21 16 13 15 18 17 16 14 22 21 19 23 25 26 27 26 27 28 28 18 23 25 23 18 20 23 26 29 32 28 33 33 33 34 34 36 36 35 35 35 34
14 13 12 13 14 14 15 17 19 20 21 20 22 20 23 24 24 26 26 27 23 9 17 21 17 19 15 18 22 27 29 28 29 33 34 32 33 33 33 36 35 35 35 33
13 10 10 11 12 14 15 17 18 19 22 20 18 22 23 23 24 25 25 20 14 16 14 14 17 16 20 23 24 25 25 27 25 33 34 33 31 32 30 33 34 33 34 34
10 7 7 11 10 11 14 19 19 18 22 22 23 23 23 24 26 24 24 26 13 19 9 13 17 20 23 24 25 24 24 26 31 33 33 29 29 29 34 33 34 34 33 33
9 6 8 9 9 11 14 17 17 17 20 22 23 23 24 25 23 24 29 30 25 17 16 19 20 22 24 26 25 22 23 30 31 33 31 29 32 32 34 33 35 35 30 28
7 7 10 9 7 12 12 15 17 17 17 20 23 23 24 24 18 25 30 29 25 21 20 21 22 27 27 26 24 23 27 31 31 32 30 30 31 33 34 34 30 21 17 21
9 15 8 8 10 11 14 15 18 15 13 19 23 24 24 24 21 25 29 27 25 25 23 23 29 28 28 26 24 27 28 28 30 30 29 28 30 32 30 24 20 18 19 20
7 6 7 7 12 13 14 16 16 16 17 19 22 23 23 24 23 20 23 24 22 23 25 27 27 27 27 27 27 28 27 28 28 28 28 27 26 24 21 17 18 20 20 24
8 8 9 11 10 12 14 13 16 16 18 19 21 22 21 23 22 21 22 22 22 24 24 26 27 26 27 28 27 28 27 25 27 26 25 25 23 21 21 21 23 24 25 27
11 14 12 14 13 13 16 16 17 17 18 20 20 21 21 22 22 21 21 22 21 23 24 25 25 26 27 27 27 28 25 24 27 25 24 22 22 19 21 25 28 27 29 29
10 10 10 9 11 13 14 16 17 18 19 20 20 20 21 22 21 20 20 20 21 22 24 24 25 25 25 25 26 26 25 23 24 24 21 21 21 20 23 25 25 28 26 26
11 7 9 11 10 12 13 14 16 18 18 19 20 20 20 21 21 20 19 20 21 21 23 24 24 23 25 24 24 24 24 23 22 22 20 20 20 20 23 25 27 26 27 27
8 7 8 7 11 12 11 14 15 16 17 18 18 19 20 20 20 20 19 19 19 21 22 23 23 24 25 24 25 23 23 23 21 20 21 21 18 19 23 21 23 27 27 27
Wind_Direction
125 134 127 129 102 136 53 82 84 42 44 94 31 62 75 70 71 70 60 48 39 35 32 30 25 19 11 11 6 4 4 3 1 359 357 354 352 349 347 346 343 331 328 321
92 135 8 33 97 100 82 77 72 75 88 124 62 91 86 104 92 79 73 59 45 33 25 18 13 8 3 360 0 1 0 359 359 356 354 351 348 346 345 343 339 339 334 327
105 35 54 84 80 97 88 87 73 99 86 159 103 93 62 121 99 72 56 55 46 32 23 15 9 5 360 357 357 359 360 359 358 354 354 352 349 346 344 342 339 336 330 327
24 42 88 87 85 115 92 100 71 80 113 88 161 12 203 146 112 73 56 41 33 26 18 12 5 1 360 360 3 1 359 357 356 356 353 350 347 343 341 338 334 330 329 329
34 75 83 102 350 94 37 66 73 100 148 55 174 36 44 348 3 57 46 31 28 20 16 7 2 2 2 2 2 2 357 353 352 351 350 345 342 339 336 334 330 330 328 324
31 333 356 27 50 66 51 80 85 100 143 159 308 19 31 56 71 34 30 22 39 19 11 5 8 10 360 357 353 351 350 348 351 350 348 346 344 340 338 335 333 331 328 325
23 88 24 70 58 61 94 76 68 71 77 35 96 23 19 18 18 21 21 22 13 18 13 7 2 357 355 351 350 349 349 347 350 349 349 348 345 343 341 340 339 335 332 329
41 17 68 41 31 0 33 42 21 21 10 10 45 25 30 15 15 20 27 23 14 7 5 357 353 352 349 350 348 347 349 350 351 353 351 350 346 348 348 348 346 344 339 333
329 357 2 3 21 38 30 42 26 44 134 39 41 25 32 29 26 19 12 11 7 5 0 357 353 350 352 347 345 347 350 350 350 346 347 347 350 352 350 351 349 347 345 340
304 344 347 20 25 52 39 6 26 47 11 15 23 16 20 14 9 11 8 7 5 2 359 356 352 348 346 346 350 355 350 350 348 346 348 348 350 352 352 352 350 348 347 343
297 309 8 8 14 334 27 34 35 24 36 7 4 15 15 10 9 9 9 6 2 1 355 352 350 350 353 357 352 355 355 353 353 355 357 0 358 356 354 352 351 345 346 346
306 304 338 347 344 343 4 0 17 8 6 10 6 11 20 16 14 10 6 6 3 0 357 355 359 3 1 358 3 3 1 5 3 4 6 4 3 1 0 355 352 350 346 353
321 341 15 359 8 31 12 17 26 30 28 17 4 14 25 17 14 14 9 5 4 2 3 10 15 25 28 22 23 20 17 14 13 16 12 12 11 8 3 359 356 356 356 354
323 329 326 325 343 16 11 14 23 25 20 3 14 19 19 18 12 9 9 9 8 11 22 32 32 31 41 30 27 26 23 18 24 18 16 14 12 10 4 1 2 2 359 359
330 339 347 343 342 359 11 18 25 24 19 16 14 16 19 16 16 11 12 17 27 23 42 39 42 41 29 34 36 31 28 28 26 22 20 22 22 22 19 8 7 4 3 1
335 353 16 17 9 26 21 28 30 27 19 27 28 24 24 21 17 16 23 39 42 39 44 41 45 39 38 41 42 41 37 32 33 26 27 28 30 30 36 29 23 24 18 14
350 28 53 16 24 40 21 15 23 36 25 20 15 18 20 18 18 24 30 26 42 37 44 47 50 48 46 47 45 47 42 37 33 31 32 41 40 40 31 32 30 33 36 35
350 36 24 15 12 1 11 21 28 31 31 26 25 24 22 19 26 31 12 16 31 50 62 61 57 52 49 49 52 54 48 39 37 37 41 44 39 39 39 41 38 33 46 50
355 22 358 23 19 13 24 26 22 25 34 28 24 23 22 21 37 38 2 21 39 56 64 63 60 49 48 51 60 57 51 43 44 44 47 47 47 45 43 44 55 67 70 69
323 299 4 22 13 10 15 23 19 39 39 25 21 22 23 26 29 18 5 25 41 45 59 57 44 49 54 59 61 56 53 52 50 52 53 55 56 54 59 67 73 77 76 75
3 21 14 22 356 1 12 16 28 23 22 29 26 27 28 28 33 38 34 47 55 53 49 48 50 52 57 59 59 56 57 57 57 58 58 63 66 70 73 78 81 76 74 70
339 355 356 349 358 358 15 33 18 33 34 31 30 31 34 35 41 43 47 54 54 49 52 50 47 54 56 57 58 57 59 61 61 64 65 70 75 80 81 81 78 77 71 71
325 314 334 330 353 25 17 29 33 35 35 32 34 38 40 42 51 58 59 76 65 52 50 53 59 56 55 57 58 58 62 63 63 67 71 77 82 85 83 78 73 73 70 72
322 334 353 31 32 32 34 36 37 39 41 40 44 44 48 51 65 68 62 69 56 39 45 52 54 54 55 57 58 60 62 65 66 69 76 81 86 86 81 76 75 72 72 73
320 18 22 16 48 46 46 45 47 47 45 45 46 50 55 59 70 77 53 63 60 52 50 48 50 56 53 54 57 58 61 66 69 72 78 82 86 88 80 78 74 76 73 75
326 13 12 30 90 18 68 60 57 49 46 49 54 55 56 67 75 79 57 63 62 57 51 48 48 44 45 50 53 57 59 63 69 75 77 77 86 86 72 83 80 76 78 76